STARLINK-3872, 52453

Orbit data source: Space-Track

STARLINK-3872, 52453 is a payload satellite owned by SpaceX/Seattle (US) in LEO that was launched on Fri, 06 May 2022 UTC via an FALCON 9 launch vehicle from the Air Force Eastern Test Range (AFETR). Payload-class satellites include a variety of spacecraft equipped with specific instruments for various scientific and technological missions. These include communications satellites like Starlink; space stations such as the ISS; scientific satellites like the Hubble; Earth observation satellites from companies like Planet Labs, Umbra, and HawkEye 360; GPS; miniature CubeSats for education and research; and military/defense satellites.

Loading next visibility...
Identifier
52453, 2022-049C
Orbit
LEO
Country
Flag of USUS
Related business
Manufacturer
SpaceX/Seattle
Mission
Operational Commercial Communications
Bus & Motor
STARLINK, Unknown motor
Mass
297 kg wet, ~220 kg dry
Launch date (UTC)
2022-05-06 (4 years ago)
Launch vehicle
FALCON 9
Launch site
Air Force Eastern Test Range (AFETR)
Object type
Payload
Rocket body
Debris
Shape & HBR
Box + 1 Pan, 10.1 m
Radar Cross Section
13.562 m², Large (>1 m²)

Expand to show TLE details & history
Last TLE update: 17 hours ago

TLE from 17 hours ago
0 STARLINK-3872
1 52453U 22049C   26206.61640960 -.00000979  00000-0 -43427-4 0  9995
2 52453  53.1601 169.6152 0001455  73.9181 286.1970 15.08819945232933
Epoch: 2026-07-25T14:47Z
TLE epoch observation values (Epoch: 2026-07-25T14:47:37.789Z)
Latitude
-0.00006°
Longitude
4.38157°
Altitude
540.415 km
Speed
7.594 km/s
True Right ascension
11h 18m 27s
True Declination
0° 00' 00"
Sunlit
Object was in daylight at epoch
Visualization orbit readout
Latitude
Unknown
Longitude
Unknown
Altitude
Unknown
Speed
Unknown
Apparent Right ascension
Unknown
Apparent Declination
Unknown
Sunlit
N/A
Visualization observer readout
Local Sidereal Time
21:11:49
Azimuth
Unknown
Elevation
Unknown
Doppler factor
Unknown
Orbital elements
Apogee altitude
541.065 km
Perigee altitude
539.052 km
Semi-major axis
6,918.196 km
Eccentricity
0.00015
Inclination
53.1601°
RAAN
169.6152°
Arg. of periapsis
73.9181°
True anomaly
286.18099°
Mean anomaly
286.197°
Eccentric anomaly
286.18899°
Mean motion
3.77185 °/min
Orbital period
95.44 mins
BSTAR
-0.000043427
Loading maneuver chart data...
Computing Atmospheric mass density...
Loading historical data...
Loading historical data...
Loading historical data...
Loading historical data...
Loading historical data...
Loading historical data...
Loading historical data...

Documentation

Showing up to 5 results
|